Temp
44 44 45 46 46 46 45 46 47 47 46 45 44 44 44 43 43 43 44 44 44 43 43 42 42 42 41 41 41 42 42 43 44 44 45 45 44 44 44 44 44 44 45 45 46 47 48 49 50 51 51 51 51 51 51 51 51 51 51 50 50 50 50 50 50 51 51 52 53
44 44 45 47 47 46 45 45 46 46 46 46 45 44 43 43 43 43 43 43 44 44 43 43 43 42 41 41 41 42 42 42 42 43 43 43 44 44 44 44 44 44 44 44 46 47 47 48 49 50 51 51 51 51 50 50 50 50 50 50 50 50 50 50 50 50 51 51 52
43 44 44 44 44 44 44 44 44 44 44 44 45 44 44 43 43 43 43 43 43 43 43 43 42 42 41 40 40 41 42 42 42 42 42 42 42 43 43 43 43 43 44 44 45 46 47 47 48 49 49 50 50 50 50 50 50 50 50 50 50 50 49 49 49 50 50 51 51
43 43 43 43 43 43 43 44 43 43 44 44 44 44 44 44 44 44 43 43 42 43 43 42 42 41 41 40 40 41 42 43 42 41 41 41 41 41 42 42 42 42 43 43 44 45 45 46 48 48 48 48 49 49 49 49 49 50 50 50 50 49 49 49 49 49 50 50 50
43 43 43 43 43 43 43 43 43 43 44 44 44 44 44 44 44 43 43 43 43 43 43 42 41 41 41 41 41 41 41 42 43 42 40 40 40 40 41 41 41 42 42 43 44 44 45 46 47 47 47 47 48 48 48 48 48 49 50 50 50 49 49 48 48 49 49 49 49
43 43 43 43 44 43 43 43 43 43 43 44 43 43 43 44 44 44 43 43 43 43 43 44 43 42 42 41 41 40 40 40 40 40 39 39 39 39 40 42 42 42 43 43 44 44 44 46 47 47 47 48 48 48 48 48 48 48 49 49 49 49 49 48 48 48 48 48 49
43 43 43 43 43 43 43 43 43 43 43 43 42 42 42 43 43 43 42 42 42 43 44 45 43 42 41 40 40 40 40 40 39 39 39 38 38 39 40 41 43 44 44 44 44 44 44 46 46 46 47 48 48 47 47 47 47 47 48 48 49 49 48 48 48 47 47 47 48
43 44 44 44 44 44 43 43 43 43 43 43 42 42 42 42 42 42 42 42 42 42 43 43 42 41 40 40 40 40 40 39 39 38 38 38 38 39 40 41 42 43 44 44 44 44 45 46 45 46 46 47 47 47 46 46 46 46 47 47 48 48 48 47 47 47 47 47 47
43 43 43 43 43 43 43 43 43 43 42 42 42 42 42 43 42 42 42 42 43 43 42 42 41 41 41 41 40 40 39 39 38 38 38 38 38 38 39 40 42 43 43 44 44 45 46 46 46 46 46 46 46 46 46 46 46 45 46 46 46 47 47 47 47 46 46 46 46
42 42 43 43 43 43 43 43 43 43 42 42 42 42 43 45 44 43 42 42 43 43 41 41 41 41 41 41 41 40 39 39 38 38 38 39 39 38 38 39 41 42 43 43 44 45 45 45 45 45 45 45 45 45 45 45 45 45 45 45 45 45 45 46 46 46 46 46 46
42 42 43 42 43 44 44 43 43 43 42 42 42 42 43 44 43 43 43 43 42 41 41 41 41 41 41 41 41 41 40 39 38 38 38 38 38 37 37 38 40 41 42 42 44 44 44 44 44 44 44 44 44 44 45 45 44 44 44 44 44 44 44 44 44 44 44 45 45
42 43 43 43 43 43 43 42 42 42 42 42 42 42 42 42 42 43 43 42 42 41 41 41 41 41 41 41 41 41 41 39 39 38 38 37 37 37 37 37 39 39 40 39 41 43 44 44 44 44 44 44 44 44 44 44 44 44 44 44 44 44 44 44 44 44 44 44 44
42 42 42 42 43 43 42 42 42 42 42 42 42 41 41 42 43 43 43 42 41 41 41 41 42 41 41 41 40 40 40 40 39 39 38 37 37 37 37 37 38 38 38 38 39 41 42 43 44 44 44 44 44 44 44 44 44 44 43 43 43 43 43 43 43 43 43 43 43
42 42 42 42 42 42 42 41 42 42 42 42 42 42 42 42 43 43 43 41 41 40 40 41 42 42 42 41 41 41 41 40 40 39 38 38 37 37 36 36 37 37 37 37 38 39 40 42 43 43 43 43 44 44 44 44 44 44 43 43 43 43 43 43 43 43 43 42 43
42 42 42 42 41 41 41 41 42 42 42 42 42 42 43 42 43 43 43 41 41 41 40 41 41 42 42 42 41 41 41 41 40 39 39 39 38 37 36 36 36 36 36 36 37 38 39 41 43 43 43 43 43 44 44 44 44 44 44 43 43 43 43 43 43 43 43 42 42
43 42 42 42 41 41 41 41 42 42 42 43 43 43 43 43 43 43 43 42 41 41 41 41 41 41 42 43 42 42 41 40 40 40 39 38 38 37 37 36 36 36 35 35 36 36 37 39 41 42 43 43 44 44 44 44 44 44 44 44 43 43 43 43 43 43 42 42 42
43 43 43 42 42 42 42 42 42 42 42 42 43 43 43 43 43 43 44 43 42 41 41 41 41 41 41 42 43 42 41 40 40 39 39 39 38 37 37 36 36 36 35 35 35 35 36 37 39 41 43 43 43 43 43 43 44 44 44 44 44 43 43 43 43 43 42 42 42
44 44 43 43 42 42 42 42 42 42 42 42 42 42 42 42 42 43 43 43 42 41 41 41 41 41 41 41 41 42 42 41 40 40 39 39 38 38 37 36 36 36 36 35 35 35 36 36 38 39 41 41 41 41 41 41 42 43 44 44 44 44 43 43 43 43 43 42 42
44 44 44 43 43 43 43 43 43 42 42 42 42 42 42 42 42 41 41 41 42 42 41 41 41 41 41 41 41 42 42 41 41 40 40 39 39 38 38 37 37 36 36 36 35 35 36 36 37 38 39 39 39 39 39 40 41 42 43 44 44 44 44 43 43 43 43 43 42
44 44 44 43 43 43 43 43 43 42 42 42 42 41 41 41 41 41 41 40 41 41 41 40 40 40 40 40 40 41 41 41 41 40 40 39 39 38 38 38 37 37 36 36 36 36 36 36 37 37 38 38 38 38 38 39 40 41 42 43 42 42 43 43 43 43 43 43 43
43 43 43 43 43 43 43 42 42 42 42 42 42 41 41 41 41 41 41 41 41 41 40 40 40 40 40 40 40 40 41 41 41 40 39 39 38 38 38 38 37 36 36 36 36 36 36 36 36 37 37 38 38 38 38 38 38 39 39 40 39 39 39 40 41 41 42 42 42
43 43 43 43 42 42 42 42 42 42 42 42 42 42 41 41 41 41 41 41 41 40 40 39 39 39 39 39 39 39 40 41 40 40 39 39 38 38 38 37 37 36 35 35 35 35 36 36 37 37 37 37 37 37 38 38 37 37 37 37 37 37 37 38 38 38 39 39 39
43 42 42 42 42 43 43 42 42 42 42 42 42 41 41 41 41 41 41 41 41 40 40 39 39 39 39 39 39 39 39 40 40 40 40 39 39 38 38 37 36 36 35 35 35 35 35 36 36 36 37 37 37 37 38 38 38 37 36 36 36 36 37 37 37 37 37 37 37
42 42 42 42 42 42 42 42 41 41 41 41 41 41 41 41 41 41 41 41 40 40 40 39 39 39 39 39 39 39 39 39 39 39 39 39 39 38 38 37 36 36 36 36 36 37 37 36 36 36 36 36 36 37 37 37 37 36 36 36 36 36 36 37 37 37 37 37 37
41 41 41 41 41 41 41 41 41 41 41 41 41 41 41 41 41 41 41 41 40 40 40 39 39 39 39 39 39 39 39 38 38 38 39 39 39 39 38 37 36 36 37 38 42 44 44 42 39 37 36 36 36 37 37 37 37 36 36 36 36 36 36 36 37 37 37 37 37
40 40 40 41 41 41 41 41 41 41 41 41 41 41 41 41 41 41 41 41 41 40 40 40 39 40 40 39 38 38 38 38 38 38 38 38 38 38 38 37 37 37 38 41 45 47 47 47 46 42 38 35 36 36 36 36 36 36 36 36 36 36 35 35 36 36 37 37 37
39 39 40 40 40 40 40 40 40 40 40 40 40 41 41 41 41 41 41 41 41 41 41 40 40 41 41 39 38 38 38 38 38 38 38 38 38 38 38 38 37 38 39 44 47 48 48 48 48 46 42 37 36 36 36 35 36 36 36 35 35 35 35 35 35 36 36 36 37
39 39 39 39 39 39 40 40 40 40 40 40 40 41 41 41 41 42 42 42 42 41 41 41 41 41 41 39 38 38 38 38 37 37 37 37 37 37 38 38 37 39 42 46 48 48 48 48 48 47 46 41 37 36 36 36 36 35 35 35 35 35 35 34 35 35 35 35 36
38 38 38 38 38 38 39 39 39 40 40 40 40 41 41 41 41 42 42 42 42 42 41 41 41 40 40 39 39 38 38 38 37 37 37 37 37 37 37 37 37 40 44 48 49 49 49 48 48 48 47 46 40 38 37 37 36 35 34 34 34 34 34 34 34 34 34 35 35
37 37 37 37 37 38 38 38 39 39 40 40 40 40 41 41 41 42 42 42 42 42 42 41 41 40 40 39 39 39 38 38 38 37 37 37 37 37 37 38 38 40 43 48 49 49 49 49 48 47 47 47 42 40 38 39 37 36 34 34 33 33 33 33 34 34 34 34 34
37 36 36 36 37 37 37 38 38 39 39 40 40 40 40 40 41 41 42 42 42 42 43 42 41 41 40 40 39 39 39 39 38 38 37 37 38 38 38 37 37 39 43 48 49 49 49 49 48 47 47 46 43 40 38 40 38 36 35 33 33 33 33 33 33 33 33 33 33
36 36 36 36 36 37 37 38 38 39 39 39 39 39 39 39 40 40 41 41 41 42 42 41 41 40 40 40 40 40 39 39 39 38 38 37 37 37 37 37 37 39 43 48 48 49 49 49 49 48 47 46 44 40 38 38 38 37 36 35 34 34 34 33 33 33 33 33 33
36 36 36 36 36 36 37 37 38 38 38 38 39 39 39 39 39 39 40 41 41 41 40 40 40 40 40 40 40 40 40 40 39 39 39 39 38 37 37 38 37 40 44 47 48 49 49 49 49 48 48 47 44 41 38 38 39 39 37 36 36 35 34 33 33 33 33 32 32
35 35 35 35 36 36 36 37 37 37 38 38 38 38 38 38 38 39 39 40 41 41 41 41 41 41 41 40 40 40 40 41 40 39 38 38 37 37 37 38 38 42 46 47 48 48 48 48 48 48 48 47 44 41 40 38 39 39 38 37 36 36 35 34 33 33 32 32 32
34 34 34 34 35 35 35 35 36 37 37 37 37 37 38 38 38 39 40 41 41 41 41 41 41 41 41 41 40 40 40 41 40 39 38 38 37 37 38 38 38 42 46 47 48 48 48 48 48 48 47 47 44 41 39 38 38 39 39 39 37 36 35 35 33 33 32 32 32
33 33 33 33 34 34 35 35 35 35 36 36 37 37 37 38 38 39 40 41 41 40 40 40 40 40 40 40 40 40 40 40 40 40 39 39 38 38 38 38 37 41 45 47 48 48 48 48 48 47 47 46 43 41 39 38 38 38 39 40 39 37 35 35 34 33 32 31 31
33 32 33 33 33 34 34 34 35 35 35 36 36 37 37 37 38 38 39 40 39 38 38 38 38 38 38 39 39 40 40 39 39 40 40 40 39 38 38 38 37 39 43 47 47 48 48 48 47 47 46 43 41 39 38 37 37 37 38 39 39 38 36 36 34 33 32 31 32
32 32 32 32 33 33 34 34 34 35 35 35 35 36 36 37 37 37 38 39 37 36 36 37 37 37 38 38 39 39 39 39 39 40 40 40 39 39 38 37 37 39 42 46 47 48 48 48 47 47 45 41 38 37 37 37 36 36 37 37 37 36 35 36 33 32 32 32 35
32 32 32 32 32 33 33 34 34 34 35 35 35 35 36 36 36 36 37 38 37 36 36 36 36 37 38 39 39 39 39 39 39 40 40 40 40 40 40 38 38 39 41 45 47 48 48 48 47 47 46 42 39 38 38 37 36 35 35 35 35 34 34 34 32 31 31 32 38
32 32 32 32 32 33 33 33 33 34 34 35 35 35 35 35 36 37 38 38 37 36 36 36 36 37 39 40 39 39 39 39 39 39 40 40 41 42 42 40 39 39 41 44 46 47 48 48 48 47 46 43 39 38 38 37 36 35 35 35 34 33 33 32 30 30 30 30 35
32 32 32 32 32 32 33 33 33 34 34 34 34 35 35 36 36 37 37 36 36 37 37 37 37 37 38 40 39 39 38 39 39 39 39 40 41 42 42 41 40 39 40 42 45 47 48 48 48 48 46 43 39 38 38 37 36 35 35 35 34 33 32 31 30 29 29 29 30
MSLP
1015.59 1015.63 1015.63 1015.63 1015.63 1015.63 1015.67 1015.63 1015.59 1015.51 1015.51 1015.55 1015.55 1015.51 1015.47 1015.51 1015.51 1015.43 1015.39 1015.35 1015.27 1015.23 1015.15 1015.11 1015.07 1015.03 1014.99 1014.91 1014.87 1014.79 1014.67 1014.55 1014.43 1014.39 1014.31 1014.23 1014.15 1014.03 1013.95 1013.83 1013.71 1013.55 1013.39 1013.19 1012.99 1012.79 1012.59 1012.43 1012.19 1012.03 1011.91 1011.83 1011.71 1011.63 1011.51 1011.35 1011.19 1010.99 1010.87 1010.71 1010.59 1010.51 1010.39 1010.27 1010.19 1010.11 1009.99 1009.87 1009.79
1015.59 1015.59 1015.59 1015.59 1015.55 1015.59 1015.59 1015.59 1015.55 1015.51 1015.47 1015.43 1015.43 1015.43 1015.43 1015.43 1015.43 1015.43 1015.35 1015.31 1015.23 1015.15 1015.11 1015.07 1015.03 1014.99 1014.99 1014.91 1014.87 1014.79 1014.71 1014.59 1014.55 1014.47 1014.43 1014.39 1014.31 1014.19 1014.11 1013.99 1013.87 1013.71 1013.55 1013.39 1013.15 1012.99 1012.83 1012.63 1012.43 1012.27 1012.15 1011.99 1011.91 1011.79 1011.67 1011.55 1011.39 1011.19 1010.99 1010.87 1010.83 1010.71 1010.59 1010.47 1010.43 1010.35 1010.23 1010.07 1009.99
1015.51 1015.47 1015.51 1015.51 1015.59 1015.59 1015.59 1015.59 1015.59 1015.55 1015.51 1015.43 1015.35 1015.31 1015.35 1015.35 1015.35 1015.35 1015.31 1015.23 1015.15 1015.11 1015.03 1014.99 1014.99 1014.99 1014.95 1014.91 1014.87 1014.79 1014.71 1014.63 1014.59 1014.59 1014.55 1014.47 1014.43 1014.35 1014.31 1014.15 1013.99 1013.87 1013.71 1013.51 1013.31 1013.15 1012.99 1012.83 1012.59 1012.47 1012.39 1012.27 1012.15 1012.03 1011.95 1011.83 1011.63 1011.43 1011.27 1011.15 1011.07 1010.99 1010.87 1010.75 1010.71 1010.59 1010.43 1010.31 1010.23
1015.43 1015.47 1015.47 1015.47 1015.51 1015.55 1015.59 1015.59 1015.55 1015.51 1015.47 1015.35 1015.31 1015.27 1015.27 1015.27 1015.27 1015.27 1015.23 1015.15 1015.11 1015.03 1014.99 1014.91 1014.91 1014.95 1014.91 1014.87 1014.87 1014.79 1014.71 1014.63 1014.59 1014.59 1014.59 1014.59 1014.55 1014.47 1014.43 1014.31 1014.19 1014.03 1013.87 1013.67 1013.47 1013.31 1013.15 1012.99 1012.79 1012.71 1012.59 1012.51 1012.31 1012.27 1012.23 1012.15 1011.95 1011.71 1011.59 1011.47 1011.39 1011.27 1011.15 1011.07 1010.95 1010.83 1010.67 1010.59 1010.47
1015.43 1015.39 1015.43 1015.43 1015.43 1015.43 1015.43 1015.43 1015.47 1015.47 1015.43 1015.31 1015.27 1015.27 1015.27 1015.23 1015.23 1015.19 1015.15 1015.11 1015.03 1014.99 1014.91 1014.87 1014.87 1014.87 1014.87 1014.83 1014.83 1014.83 1014.75 1014.67 1014.63 1014.67 1014.67 1014.63 1014.63 1014.59 1014.55 1014.43 1014.35 1014.19 1013.99 1013.83 1013.63 1013.47 1013.31 1013.11 1012.95 1012.87 1012.83 1012.71 1012.59 1012.51 1012.47 1012.39 1012.19 1011.99 1011.83 1011.67 1011.59 1011.55 1011.43 1011.31 1011.19 1011.07 1010.91 1010.79 1010.67
1015.35 1015.31 1015.27 1015.31 1015.35 1015.39 1015.39 1015.39 1015.39 1015.39 1015.35 1015.31 1015.31 1015.35 1015.31 1015.23 1015.19 1015.15 1015.15 1015.07 1014.99 1014.87 1014.83 1014.79 1014.79 1014.79 1014.79 1014.79 1014.79 1014.79 1014.75 1014.71 1014.67 1014.71 1014.71 1014.71 1014.71 1014.71 1014.63 1014.55 1014.47 1014.31 1014.15 1013.99 1013.79 1013.63 1013.47 1013.27 1013.15 1013.03 1012.95 1012.87 1012.75 1012.71 1012.67 1012.55 1012.39 1012.19 1012.03 1011.87 1011.79 1011.71 1011.67 1011.59 1011.51 1011.35 1011.19 1010.99 1010.87
1015.27 1015.27 1015.27 1015.27 1015.27 1015.31 1015.35 1015.35 1015.35 1015.35 1015.31 1015.31 1015.35 1015.35 1015.31 1015.23 1015.19 1015.15 1015.07 1014.99 1014.95 1014.87 1014.83 1014.75 1014.75 1014.75 1014.79 1014.79 1014.79 1014.75 1014.71 1014.71 1014.71 1014.71 1014.71 1014.71 1014.71 1014.71 1014.71 1014.63 1014.55 1014.43 1014.31 1014.11 1013.91 1013.79 1013.67 1013.51 1013.39 1013.27 1013.15 1013.03 1012.95 1012.87 1012.83 1012.75 1012.59 1012.43 1012.27 1012.11 1011.99 1011.91 1011.87 1011.83 1011.71 1011.59 1011.43 1011.31 1011.15
1015.15 1015.19 1015.19 1015.19 1015.23 1015.27 1015.31 1015.31 1015.35 1015.35 1015.35 1015.35 1015.35 1015.31 1015.27 1015.23 1015.15 1015.07 1014.99 1014.95 1014.91 1014.87 1014.83 1014.75 1014.75 1014.75 1014.71 1014.75 1014.75 1014.71 1014.71 1014.71 1014.71 1014.71 1014.71 1014.71 1014.71 1014.71 1014.71 1014.71 1014.67 1014.55 1014.43 1014.23 1014.07 1013.95 1013.79 1013.67 1013.59 1013.47 1013.39 1013.27 1013.15 1013.07 1012.99 1012.91 1012.79 1012.67 1012.51 1012.35 1012.23 1012.15 1012.07 1011.99 1011.95 1011.87 1011.71 1011.59 1011.39
1015.19 1015.15 1015.15 1015.15 1015.19 1015.23 1015.27 1015.31 1015.35 1015.39 1015.39 1015.39 1015.39 1015.31 1015.23 1015.15 1015.11 1015.03 1014.99 1014.91 1014.87 1014.79 1014.75 1014.75 1014.71 1014.71 1014.71 1014.71 1014.71 1014.71 1014.67 1014.67 1014.67 1014.71 1014.71 1014.71 1014.75 1014.75 1014.71 1014.71 1014.71 1014.59 1014.47 1014.35 1014.19 1014.07 1013.95 1013.83 1013.71 1013.63 1013.59 1013.43 1013.35 1013.27 1013.15 1013.07 1012.99 1012.87 1012.71 1012.59 1012.47 1012.39 1012.31 1012.23 1012.15 1012.03 1011.87 1011.71 1011.59
1015.19 1015.15 1015.15 1015.15 1015.15 1015.15 1015.23 1015.27 1015.31 1015.35 1015.39 1015.39 1015.35 1015.27 1015.23 1015.15 1015.07 1014.99 1014.91 1014.87 1014.79 1014.75 1014.71 1014.71 1014.71 1014.67 1014.67 1014.63 1014.59 1014.59 1014.59 1014.59 1014.63 1014.67 1014.71 1014.71 1014.71 1014.71 1014.71 1014.71 1014.71 1014.67 1014.59 1014.43 1014.31 1014.15 1014.07 1013.95 1013.87 1013.75 1013.71 1013.63 1013.55 1013.43 1013.27 1013.19 1013.11 1012.99 1012.87 1012.75 1012.67 1012.55 1012.43 1012.39 1012.31 1012.15 1012.03 1011.87 1011.75
1015.15 1015.11 1015.11 1015.15 1015.15 1015.15 1015.19 1015.27 1015.27 1015.31 1015.35 1015.35 1015.31 1015.27 1015.23 1015.15 1015.03 1014.95 1014.87 1014.75 1014.75 1014.75 1014.71 1014.67 1014.63 1014.63 1014.63 1014.59 1014.55 1014.51 1014.47 1014.51 1014.51 1014.59 1014.59 1014.67 1014.71 1014.71 1014.71 1014.71 1014.71 1014.71 1014.59 1014.47 1014.31 1014.23 1014.15 1014.03 1013.95 1013.87 1013.79 1013.71 1013.59 1013.51 1013.43 1013.31 1013.19 1013.11 1012.99 1012.95 1012.87 1012.71 1012.59 1012.47 1012.43 1012.31 1012.19 1012.03 1011.87
1015.15 1015.11 1015.07 1015.03 1015.03 1015.11 1015.15 1015.23 1015.27 1015.27 1015.31 1015.31 1015.27 1015.27 1015.19 1015.15 1015.03 1014.95 1014.87 1014.79 1014.75 1014.75 1014.67 1014.59 1014.59 1014.59 1014.59 1014.59 1014.51 1014.43 1014.43 1014.43 1014.43 1014.51 1014.55 1014.59 1014.63 1014.67 1014.67 1014.67 1014.67 1014.63 1014.59 1014.51 1014.39 1014.31 1014.23 1014.15 1014.07 1013.99 1013.87 1013.79 1013.71 1013.59 1013.55 1013.43 1013.31 1013.19 1013.11 1013.03 1012.95 1012.83 1012.71 1012.59 1012.51 1012.43 1012.35 1012.23 1012.07
1015.11 1015.07 1015.03 1014.99 1014.99 1015.03 1015.15 1015.19 1015.27 1015.27 1015.27 1015.27 1015.23 1015.19 1015.15 1015.07 1014.99 1014.95 1014.87 1014.83 1014.75 1014.71 1014.67 1014.59 1014.55 1014.51 1014.51 1014.51 1014.43 1014.39 1014.39 1014.39 1014.39 1014.43 1014.43 1014.51 1014.55 1014.59 1014.63 1014.63 1014.59 1014.59 1014.59 1014.51 1014.43 1014.31 1014.27 1014.23 1014.15 1014.07 1013.99 1013.87 1013.75 1013.67 1013.59 1013.55 1013.43 1013.31 1013.19 1013.11 1013.03 1012.95 1012.87 1012.75 1012.67 1012.59 1012.47 1012.35 1012.23
1015.03 1015.03 1015.03 1014.99 1014.99 1015.03 1015.11 1015.15 1015.19 1015.19 1015.19 1015.19 1015.15 1015.11 1015.07 1014.99 1014.95 1014.91 1014.87 1014.83 1014.75 1014.71 1014.67 1014.59 1014.51 1014.47 1014.43 1014.39 1014.35 1014.31 1014.31 1014.31 1014.31 1014.35 1014.39 1014.43 1014.43 1014.47 1014.55 1014.59 1014.59 1014.55 1014.55 1014.47 1014.43 1014.35 1014.31 1014.27 1014.19 1014.15 1014.07 1013.95 1013.83 1013.71 1013.63 1013.59 1013.51 1013.43 1013.31 1013.23 1013.15 1013.07 1012.99 1012.91 1012.83 1012.71 1012.59 1012.47 1012.39
1015.03 1015.03 1015.03 1014.99 1014.99 1015.03 1015.07 1015.15 1015.15 1015.15 1015.15 1015.11 1015.03 1014.99 1014.91 1014.91 1014.87 1014.83 1014.79 1014.79 1014.75 1014.71 1014.63 1014.59 1014.51 1014.43 1014.31 1014.23 1014.23 1014.23 1014.23 1014.23 1014.27 1014.31 1014.35 1014.39 1014.39 1014.43 1014.43 1014.47 1014.51 1014.51 1014.51 1014.47 1014.43 1014.35 1014.31 1014.27 1014.23 1014.15 1014.11 1013.99 1013.87 1013.75 1013.67 1013.59 1013.55 1013.47 1013.39 1013.31 1013.27 1013.15 1013.11 1013.03 1012.95 1012.87 1012.75 1012.63 1012.55
1014.99 1014.99 1014.99 1014.99 1014.99 1014.99 1014.99 1015.03 1015.03 1015.03 1015.03 1014.99 1014.95 1014.87 1014.83 1014.83 1014.75 1014.71 1014.71 1014.71 1014.71 1014.67 1014.63 1014.59 1014.51 1014.39 1014.31 1014.15 1014.15 1014.15 1014.15 1014.15 1014.19 1014.27 1014.31 1014.35 1014.35 1014.35 1014.35 1014.39 1014.43 1014.43 1014.43 1014.43 1014.35 1014.31 1014.31 1014.27 1014.19 1014.15 1014.11 1014.03 1013.87 1013.79 1013.67 1013.59 1013.55 1013.47 1013.39 1013.31 1013.27 1013.19 1013.15 1013.11 1012.99 1012.91 1012.87 1012.79 1012.67
1014.99 1014.95 1014.95 1014.95 1014.99 1014.99 1014.99 1014.99 1014.99 1014.99 1014.95 1014.91 1014.87 1014.87 1014.83 1014.79 1014.75 1014.71 1014.71 1014.67 1014.71 1014.67 1014.63 1014.55 1014.47 1014.39 1014.27 1014.15 1014.11 1014.07 1014.11 1014.11 1014.15 1014.19 1014.23 1014.27 1014.27 1014.27 1014.31 1014.31 1014.31 1014.31 1014.31 1014.31 1014.31 1014.31 1014.27 1014.19 1014.15 1014.07 1014.03 1013.99 1013.87 1013.75 1013.67 1013.59 1013.51 1013.43 1013.35 1013.27 1013.23 1013.15 1013.11 1013.07 1013.03 1012.99 1012.91 1012.87 1012.75
1014.99 1014.95 1014.91 1014.95 1014.95 1014.95 1014.95 1014.95 1014.95 1014.95 1014.87 1014.87 1014.87 1014.83 1014.83 1014.79 1014.79 1014.75 1014.71 1014.67 1014.67 1014.67 1014.63 1014.55 1014.43 1014.39 1014.31 1014.23 1014.15 1014.11 1014.07 1014.03 1014.07 1014.07 1014.11 1014.11 1014.15 1014.15 1014.15 1014.15 1014.15 1014.15 1014.19 1014.19 1014.19 1014.19 1014.19 1014.15 1014.07 1014.03 1013.99 1013.91 1013.83 1013.71 1013.63 1013.55 1013.47 1013.43 1013.35 1013.27 1013.19 1013.11 1013.07 1013.03 1012.99 1012.95 1012.91 1012.87 1012.75
1015.03 1014.99 1014.99 1014.99 1014.99 1014.99 1014.95 1014.95 1014.95 1014.91 1014.87 1014.87 1014.83 1014.83 1014.79 1014.79 1014.79 1014.79 1014.75 1014.71 1014.67 1014.63 1014.59 1014.55 1014.43 1014.39 1014.31 1014.23 1014.15 1014.07 1013.99 1013.99 1013.99 1013.99 1013.99 1013.99 1013.99 1013.99 1014.03 1014.03 1014.07 1014.07 1014.07 1014.11 1014.11 1014.07 1014.07 1014.03 1013.99 1013.99 1013.91 1013.87 1013.79 1013.71 1013.59 1013.51 1013.43 1013.35 1013.27 1013.19 1013.15 1013.07 1012.99 1012.99 1012.91 1012.87 1012.83 1012.79 1012.75
1015.11 1015.11 1015.07 1015.07 1015.07 1015.03 1015.03 1014.99 1014.95 1014.91 1014.87 1014.83 1014.79 1014.79 1014.79 1014.75 1014.71 1014.75 1014.75 1014.71 1014.63 1014.59 1014.59 1014.55 1014.47 1014.39 1014.31 1014.27 1014.15 1014.07 1013.99 1013.91 1013.91 1013.87 1013.87 1013.87 1013.87 1013.87 1013.87 1013.91 1013.95 1013.95 1013.95 1013.99 1013.99 1013.99 1013.95 1013.91 1013.91 1013.87 1013.87 1013.83 1013.75 1013.67 1013.59 1013.47 1013.43 1013.31 1013.23 1013.15 1013.07 1012.99 1012.87 1012.83 1012.79 1012.75 1012.71 1012.71 1012.71
1015.19 1015.19 1015.15 1015.15 1015.11 1015.11 1015.11 1014.99 1014.95 1014.91 1014.87 1014.79 1014.79 1014.75 1014.71 1014.71 1014.67 1014.67 1014.67 1014.59 1014.55 1014.55 1014.59 1014.51 1014.43 1014.43 1014.35 1014.31 1014.19 1014.11 1013.99 1013.87 1013.83 1013.79 1013.79 1013.75 1013.75 1013.75 1013.75 1013.75 1013.79 1013.83 1013.87 1013.87 1013.87 1013.87 1013.87 1013.87 1013.87 1013.83 1013.79 1013.75 1013.71 1013.63 1013.59 1013.47 1013.43 1013.31 1013.23 1013.15 1013.07 1012.99 1012.87 1012.75 1012.71 1012.67 1012.59 1012.59 1012.59
1015.27 1015.27 1015.19 1015.15 1015.15 1015.15 1015.07 1014.99 1014.95 1014.87 1014.87 1014.79 1014.75 1014.71 1014.67 1014.63 1014.59 1014.55 1014.51 1014.47 1014.47 1014.47 1014.47 1014.47 1014.43 1014.39 1014.31 1014.27 1014.19 1014.11 1013.99 1013.87 1013.79 1013.71 1013.71 1013.67 1013.67 1013.63 1013.59 1013.63 1013.71 1013.71 1013.79 1013.79 1013.83 1013.83 1013.79 1013.75 1013.71 1013.71 1013.71 1013.71 1013.63 1013.59 1013.51 1013.43 1013.39 1013.35 1013.27 1013.15 1013.11 1012.99 1012.87 1012.79 1012.71 1012.63 1012.55 1012.47 1012.43
1015.39 1015.31 1015.27 1015.19 1015.15 1015.11 1015.03 1014.99 1014.95 1014.91 1014.87 1014.79 1014.71 1014.63 1014.59 1014.55 1014.51 1014.43 1014.43 1014.39 1014.39 1014.39 1014.35 1014.35 1014.35 1014.31 1014.23 1014.15 1014.15 1014.07 1013.99 1013.87 1013.75 1013.67 1013.59 1013.59 1013.55 1013.47 1013.47 1013.51 1013.59 1013.63 1013.67 1013.71 1013.71 1013.71 1013.71 1013.71 1013.67 1013.63 1013.59 1013.59 1013.59 1013.51 1013.43 1013.39 1013.31 1013.27 1013.27 1013.15 1013.11 1012.99 1012.91 1012.83 1012.71 1012.63 1012.55 1012.43 1012.39
1015.43 1015.39 1015.31 1015.27 1015.19 1015.15 1015.07 1014.99 1014.99 1014.95 1014.87 1014.79 1014.71 1014.63 1014.59 1014.47 1014.43 1014.39 1014.31 1014.31 1014.31 1014.31 1014.27 1014.23 1014.23 1014.19 1014.15 1014.11 1014.07 1014.03 1013.99 1013.87 1013.79 1013.67 1013.55 1013.47 1013.43 1013.43 1013.43 1013.43 1013.43 1013.47 1013.51 1013.55 1013.55 1013.59 1013.59 1013.59 1013.59 1013.55 1013.51 1013.47 1013.43 1013.39 1013.31 1013.27 1013.23 1013.19 1013.15 1013.15 1013.07 1013.03 1012.95 1012.87 1012.75 1012.63 1012.55 1012.43 1012.35
1015.55 1015.47 1015.39 1015.35 1015.27 1015.19 1015.15 1015.07 1015.03 1014.99 1014.87 1014.79 1014.71 1014.59 1014.55 1014.47 1014.39 1014.31 1014.31 1014.27 1014.27 1014.23 1014.19 1014.15 1014.11 1014.07 1014.07 1014.03 1013.99 1013.99 1013.95 1013.87 1013.79 1013.67 1013.55 1013.43 1013.35 1013.31 1013.31 1013.31 1013.27 1013.31 1013.31 1013.31 1013.35 1013.31 1013.27 1013.35 1013.35 1013.39 1013.39 1013.39 1013.39 1013.35 1013.27 1013.23 1013.15 1013.11 1013.07 1013.07 1012.99 1012.99 1012.95 1012.87 1012.75 1012.63 1012.51 1012.43 1012.31
1015.59 1015.51 1015.43 1015.39 1015.31 1015.27 1015.19 1015.11 1015.03 1014.99 1014.87 1014.75 1014.67 1014.59 1014.51 1014.43 1014.35 1014.31 1014.31 1014.23 1014.15 1014.15 1014.07 1014.07 1014.03 1013.99 1013.99 1013.95 1013.95 1013.91 1013.87 1013.83 1013.71 1013.63 1013.51 1013.39 1013.31 1013.27 1013.23 1013.23 1013.15 1013.15 1013.15 1013.15 1013.11 1013.11 1013.11 1013.11 1013.11 1013.15 1013.27 1013.27 1013.27 1013.27 1013.23 1013.15 1013.11 1013.03 1012.99 1012.99 1012.95 1012.95 1012.91 1012.87 1012.75 1012.63 1012.55 1012.39 1012.31
1015.67 1015.59 1015.51 1015.43 1015.39 1015.27 1015.19 1015.11 1014.99 1014.95 1014.87 1014.75 1014.67 1014.59 1014.51 1014.43 1014.35 1014.31 1014.27 1014.19 1014.11 1014.03 1013.99 1013.99 1013.95 1013.91 1013.87 1013.87 1013.87 1013.87 1013.83 1013.71 1013.63 1013.59 1013.47 1013.35 1013.27 1013.23 1013.15 1013.15 1013.07 1013.03 1012.99 1012.99 1012.91 1012.91 1012.95 1012.95 1012.95 1012.99 1013.03 1013.15 1013.19 1013.19 1013.15 1013.15 1013.03 1012.99 1012.95 1012.91 1012.91 1012.87 1012.87 1012.87 1012.75 1012.63 1012.55 1012.43 1012.31
1015.71 1015.67 1015.59 1015.47 1015.43 1015.31 1015.23 1015.11 1014.99 1014.95 1014.87 1014.75 1014.67 1014.59 1014.47 1014.39 1014.35 1014.31 1014.23 1014.15 1014.07 1013.99 1013.95 1013.87 1013.83 1013.75 1013.75 1013.75 1013.79 1013.75 1013.71 1013.63 1013.55 1013.47 1013.39 1013.27 1013.19 1013.15 1013.07 1012.99 1012.95 1012.91 1012.87 1012.79 1012.75 1012.75 1012.79 1012.79 1012.79 1012.79 1012.87 1012.95 1012.99 1013.03 1013.07 1013.03 1012.99 1012.95 1012.91 1012.87 1012.83 1012.79 1012.75 1012.71 1012.67 1012.63 1012.59 1012.43 1012.35
1015.79 1015.71 1015.67 1015.59 1015.47 1015.39 1015.27 1015.15 1015.03 1014.95 1014.83 1014.71 1014.63 1014.55 1014.43 1014.35 1014.31 1014.27 1014.15 1014.07 1013.99 1013.95 1013.87 1013.79 1013.71 1013.67 1013.71 1013.71 1013.63 1013.59 1013.55 1013.47 1013.39 1013.31 1013.27 1013.19 1013.11 1013.03 1012.95 1012.87 1012.87 1012.75 1012.71 1012.63 1012.59 1012.59 1012.59 1012.63 1012.63 1012.67 1012.71 1012.71 1012.87 1012.91 1012.91 1012.91 1012.95 1012.87 1012.83 1012.79 1012.71 1012.71 1012.71 1012.59 1012.59 1012.55 1012.51 1012.43 1012.35
1015.87 1015.79 1015.71 1015.67 1015.59 1015.43 1015.35 1015.23 1015.11 1014.95 1014.83 1014.71 1014.59 1014.51 1014.43 1014.31 1014.27 1014.19 1014.15 1014.03 1013.99 1013.87 1013.79 1013.71 1013.63 1013.63 1013.63 1013.59 1013.51 1013.43 1013.43 1013.31 1013.27 1013.19 1013.15 1013.11 1012.99 1012.91 1012.83 1012.71 1012.71 1012.67 1012.59 1012.51 1012.43 1012.43 1012.43 1012.47 1012.51 1012.55 1012.59 1012.59 1012.67 1012.71 1012.71 1012.75 1012.79 1012.79 1012.75 1012.67 1012.63 1012.59 1012.59 1012.51 1012.47 1012.43 1012.43 1012.39 1012.35
1015.91 1015.87 1015.83 1015.71 1015.63 1015.51 1015.43 1015.27 1015.15 1014.99 1014.87 1014.71 1014.59 1014.51 1014.43 1014.31 1014.23 1014.15 1014.03 1013.99 1013.87 1013.71 1013.63 1013.55 1013.59 1013.55 1013.47 1013.39 1013.31 1013.27 1013.23 1013.15 1013.11 1013.03 1012.99 1012.95 1012.83 1012.71 1012.67 1012.59 1012.59 1012.51 1012.43 1012.39 1012.35 1012.31 1012.31 1012.31 1012.31 1012.39 1012.43 1012.43 1012.51 1012.59 1012.59 1012.59 1012.63 1012.63 1012.59 1012.55 1012.51 1012.47 1012.43 1012.39 1012.35 1012.35 1012.31 1012.31 1012.31
1015.99 1015.95 1015.87 1015.79 1015.71 1015.59 1015.43 1015.27 1015.15 1014.99 1014.87 1014.75 1014.67 1014.55 1014.43 1014.35 1014.27 1014.11 1013.99 1013.87 1013.71 1013.63 1013.59 1013.51 1013.47 1013.43 1013.31 1013.27 1013.19 1013.15 1013.07 1012.99 1012.91 1012.87 1012.79 1012.75 1012.71 1012.59 1012.55 1012.47 1012.43 1012.39 1012.31 1012.23 1012.19 1012.15 1012.15 1012.15 1012.15 1012.19 1012.23 1012.31 1012.39 1012.43 1012.47 1012.47 1012.47 1012.43 1012.43 1012.43 1012.35 1012.31 1012.27 1012.27 1012.27 1012.23 1012.19 1012.23 1012.23
1015.99 1015.95 1015.87 1015.83 1015.71 1015.59 1015.43 1015.31 1015.19 1015.03 1014.91 1014.79 1014.71 1014.59 1014.43 1014.31 1014.19 1014.07 1013.95 1013.79 1013.71 1013.59 1013.51 1013.43 1013.35 1013.27 1013.23 1013.15 1013.07 1012.95 1012.87 1012.83 1012.75 1012.63 1012.59 1012.55 1012.51 1012.47 1012.43 1012.35 1012.27 1012.19 1012.15 1012.11 1012.03 1011.99 1011.99 1011.99 1011.99 1011.99 1012.07 1012.11 1012.15 1012.31 1012.35 1012.35 1012.35 1012.31 1012.27 1012.23 1012.15 1012.15 1012.11 1012.07 1012.07 1012.11 1012.07 1012.07 1012.07
1016.03 1015.99 1015.91 1015.87 1015.71 1015.59 1015.43 1015.31 1015.19 1015.07 1014.95 1014.79 1014.67 1014.59 1014.43 1014.31 1014.19 1014.07 1013.91 1013.75 1013.63 1013.51 1013.43 1013.31 1013.23 1013.15 1013.03 1012.99 1012.87 1012.83 1012.71 1012.63 1012.59 1012.55 1012.47 1012.43 1012.39 1012.35 1012.31 1012.15 1012.07 1011.99 1011.95 1011.91 1011.87 1011.87 1011.87 1011.87 1011.87 1011.87 1011.87 1011.91 1011.99 1012.11 1012.15 1012.15 1012.15 1012.15 1012.15 1012.07 1011.99 1011.95 1011.91 1011.87 1011.87 1011.87 1011.91 1011.95 1011.95
1016.11 1016.03 1015.95 1015.87 1015.75 1015.63 1015.47 1015.35 1015.19 1015.03 1014.91 1014.79 1014.67 1014.51 1014.43 1014.31 1014.15 1014.03 1013.87 1013.71 1013.59 1013.43 1013.35 1013.23 1013.15 1012.99 1012.91 1012.83 1012.71 1012.67 1012.59 1012.51 1012.47 1012.43 1012.39 1012.31 1012.31 1012.23 1012.15 1011.99 1011.87 1011.83 1011.79 1011.75 1011.71 1011.67 1011.67 1011.67 1011.71 1011.71 1011.71 1011.75 1011.87 1011.95 1011.99 1011.99 1011.99 1011.99 1011.99 1011.91 1011.91 1011.87 1011.79 1011.75 1011.75 1011.71 1011.75 1011.79 1011.83
1016.03 1016.03 1015.99 1015.87 1015.75 1015.63 1015.51 1015.39 1015.23 1015.11 1014.95 1014.79 1014.67 1014.51 1014.35 1014.23 1014.11 1013.99 1013.87 1013.71 1013.59 1013.43 1013.31 1013.23 1013.11 1012.99 1012.87 1012.75 1012.67 1012.59 1012.51 1012.47 1012.39 1012.31 1012.23 1012.19 1012.15 1012.11 1011.99 1011.87 1011.75 1011.67 1011.59 1011.55 1011.51 1011.47 1011.47 1011.51 1011.51 1011.55 1011.59 1011.67 1011.71 1011.79 1011.83 1011.87 1011.87 1011.87 1011.79 1011.75 1011.71 1011.71 1011.67 1011.63 1011.59 1011.63 1011.67 1011.67 1011.71
1015.99 1015.99 1015.95 1015.87 1015.75 1015.63 1015.51 1015.39 1015.27 1015.11 1014.95 1014.79 1014.67 1014.51 1014.35 1014.23 1014.07 1013.95 1013.83 1013.71 1013.59 1013.43 1013.31 1013.19 1013.11 1012.99 1012.87 1012.75 1012.63 1012.55 1012.47 1012.39 1012.31 1012.23 1012.15 1012.03 1011.99 1011.95 1011.87 1011.75 1011.63 1011.55 1011.43 1011.39 1011.31 1011.27 1011.27 1011.27 1011.31 1011.39 1011.43 1011.55 1011.59 1011.67 1011.71 1011.71 1011.71 1011.67 1011.63 1011.55 1011.51 1011.47 1011.47 1011.47 1011.47 1011.47 1011.51 1011.55 1011.55
1015.87 1015.87 1015.87 1015.79 1015.71 1015.59 1015.43 1015.35 1015.19 1015.11 1014.99 1014.79 1014.67 1014.51 1014.35 1014.19 1014.07 1013.95 1013.83 1013.67 1013.59 1013.47 1013.31 1013.15 1013.03 1012.91 1012.83 1012.71 1012.59 1012.47 1012.35 1012.31 1012.23 1012.15 1012.03 1011.91 1011.87 1011.79 1011.71 1011.59 1011.47 1011.39 1011.27 1011.23 1011.15 1011.11 1011.07 1011.07 1011.11 1011.15 1011.27 1011.35 1011.43 1011.51 1011.59 1011.59 1011.59 1011.51 1011.43 1011.35 1011.31 1011.31 1011.27 1011.27 1011.31 1011.35 1011.35 1011.35 1011.35
1015.75 1015.75 1015.75 1015.71 1015.59 1015.51 1015.39 1015.27 1015.15 1015.03 1014.91 1014.79 1014.63 1014.47 1014.35 1014.19 1014.03 1013.87 1013.75 1013.63 1013.55 1013.43 1013.31 1013.15 1012.99 1012.87 1012.75 1012.63 1012.55 1012.39 1012.27 1012.15 1012.11 1011.99 1011.87 1011.79 1011.67 1011.59 1011.51 1011.43 1011.27 1011.19 1011.11 1011.03 1010.95 1010.91 1010.87 1010.87 1010.87 1010.91 1010.99 1011.15 1011.27 1011.35 1011.43 1011.43 1011.43 1011.35 1011.27 1011.19 1011.19 1011.15 1011.15 1011.15 1011.15 1011.19 1011.23 1011.23 1011.15
1015.67 1015.63 1015.59 1015.59 1015.51 1015.43 1015.31 1015.19 1015.07 1014.99 1014.83 1014.71 1014.59 1014.43 1014.31 1014.15 1013.99 1013.83 1013.63 1013.55 1013.47 1013.39 1013.27 1013.11 1012.99 1012.83 1012.71 1012.55 1012.43 1012.35 1012.19 1012.07 1011.99 1011.87 1011.71 1011.63 1011.47 1011.35 1011.27 1011.19 1011.11 1010.99 1010.87 1010.83 1010.71 1010.71 1010.67 1010.67 1010.63 1010.67 1010.75 1010.91 1011.03 1011.15 1011.23 1011.27 1011.27 1011.19 1011.11 1011.03 1010.99 1010.99 1010.99 1010.99 1011.03 1011.07 1011.07 1011.11 1010.99
1015.59 1015.55 1015.47 1015.43 1015.35 1015.27 1015.19 1015.11 1014.95 1014.83 1014.71 1014.59 1014.47 1014.35 1014.23 1013.99 1013.91 1013.75 1013.59 1013.51 1013.43 1013.31 1013.15 1012.99 1012.87 1012.75 1012.63 1012.51 1012.39 1012.27 1012.11 1011.99 1011.87 1011.71 1011.59 1011.47 1011.31 1011.19 1011.07 1010.99 1010.87 1010.79 1010.67 1010.59 1010.55 1010.47 1010.43 1010.43 1010.43 1010.47 1010.55 1010.71 1010.83 1010.91 1010.99 1011.07 1011.07 1010.99 1010.91 1010.79 1010.79 1010.79 1010.83 1010.87 1010.91 1010.91 1010.95 1010.95 1010.95
Wind_Speed
1 1 1 1 2 2 2 2 2 2 2 2 1 1 1 1 1 2 2 2 2 2 2 1 1 1 1 2 3 4 5 6 6 7 7 8 8 9 9 9 10 10 10 10 10 9 9 9 8 6 5 5 6 6 6 7 8 8 8 8 8 8 9 9 9 10 10 10 8
2 2 2 2 2 2 2 2 2 2 2 2 2 1 1 1 1 2 2 2 2 2 2 1 1 1 1 2 3 4 5 5 5 6 6 7 8 8 9 9 10 10 10 10 10 9 8 9 7 6 5 6 6 6 7 7 8 8 9 9 8 7 7 8 9 9 9 9 8
2 2 2 2 2 2 2 2 2 2 3 2 2 1 1 1 1 2 2 2 2 2 2 1 1 0 1 1 2 3 4 4 4 5 5 6 7 8 8 9 9 10 10 9 9 9 8 8 7 6 5 6 6 7 7 8 8 8 8 9 7 6 6 6 7 7 7 7 8
2 2 2 2 3 3 3 2 3 3 3 2 2 1 1 1 2 2 2 2 2 2 2 2 1 1 0 1 2 3 3 3 3 4 4 5 6 7 8 8 9 9 9 9 9 9 9 9 6 5 5 6 7 7 7 8 9 8 6 6 5 6 6 6 6 6 6 6 7
2 2 3 3 3 3 3 2 3 3 2 2 2 1 1 2 2 2 2 2 2 2 2 1 1 1 0 1 2 3 3 3 3 3 3 4 5 6 7 7 8 8 8 8 8 9 9 9 6 4 5 6 6 6 7 9 9 8 6 5 5 5 5 6 6 6 6 6 6
3 3 3 2 3 3 2 2 2 2 2 2 2 2 2 2 2 2 2 2 3 2 2 0 0 1 0 1 1 2 2 2 2 2 2 3 4 5 6 7 8 8 8 8 8 8 8 8 5 5 5 6 5 6 8 9 8 8 7 5 5 5 5 6 5 6 6 7 8
2 2 2 2 2 2 2 2 2 2 2 2 2 3 4 3 3 3 3 3 2 2 2 1 0 0 1 1 1 1 1 1 1 1 2 2 3 4 5 6 7 8 8 8 7 7 7 7 5 5 6 6 5 6 8 9 8 8 7 7 6 5 5 6 5 5 6 8 9
2 2 2 2 2 2 2 2 2 2 2 2 3 4 5 5 5 4 4 3 2 2 2 1 1 1 1 1 1 1 1 1 1 1 1 2 2 3 4 5 7 8 8 7 7 7 7 6 5 5 6 6 5 6 8 9 9 8 8 7 6 6 5 5 5 6 6 8 9
1 1 1 1 1 2 2 2 2 3 3 3 4 5 5 5 5 4 4 3 3 2 2 1 1 1 1 1 2 1 1 0 0 0 1 1 2 2 3 4 6 7 7 6 6 7 7 5 5 5 5 5 5 6 7 9 9 8 8 7 6 6 6 6 7 7 7 7 8
1 1 1 1 2 2 2 2 3 3 4 4 5 6 6 6 5 4 3 3 2 2 2 2 1 1 2 2 2 2 1 1 1 1 0 0 1 1 2 2 4 5 6 6 5 6 6 5 4 5 5 5 6 6 7 8 8 8 7 6 6 7 8 7 8 8 8 7 7
2 2 2 2 2 2 2 2 2 3 3 4 5 6 6 6 5 4 3 2 2 2 2 2 2 2 2 2 2 2 1 1 1 1 1 0 0 0 1 1 2 4 5 5 4 4 4 4 5 5 5 5 5 6 7 8 8 8 7 6 7 8 8 8 8 8 8 8 8
2 2 2 2 2 1 1 2 2 2 3 4 5 6 6 5 5 4 3 2 2 2 2 2 2 2 2 2 2 2 2 1 2 2 1 1 1 1 0 0 1 2 3 4 3 3 4 4 5 6 6 6 5 5 6 7 8 8 7 7 7 7 8 8 8 8 7 8 8
2 2 2 1 1 1 1 1 2 2 3 4 5 5 5 5 5 4 3 3 3 3 2 2 2 2 3 3 2 2 2 1 2 2 2 2 2 1 1 1 0 1 2 3 3 3 3 4 6 6 6 6 5 5 5 6 7 7 7 7 7 7 7 8 8 7 8 8 8
2 2 2 2 1 1 1 2 2 3 3 4 5 5 5 5 5 4 3 3 3 3 2 2 3 3 3 3 3 3 2 2 2 2 2 2 2 2 2 1 1 1 1 2 2 3 3 4 5 5 6 6 6 5 5 5 5 6 6 6 7 7 7 7 7 7 7 8 8
2 2 2 2 2 2 2 2 2 3 3 4 5 5 5 5 4 4 3 3 3 3 3 3 3 3 3 3 3 3 3 2 2 2 2 2 2 2 2 2 2 1 1 2 2 2 2 3 4 5 5 6 6 5 5 5 5 5 5 5 5 6 6 6 6 6 6 7 7
2 2 3 3 2 2 2 2 2 3 3 4 4 4 4 4 3 3 3 3 3 2 2 3 3 3 3 3 3 3 2 2 2 2 2 3 3 3 3 3 2 2 2 2 2 2 2 3 3 4 5 6 6 5 4 4 4 4 5 4 4 4 5 5 5 5 5 5 6
2 2 2 3 3 3 3 3 2 2 2 3 3 3 3 3 2 2 2 2 2 2 3 3 3 3 2 2 2 2 2 2 2 3 3 3 3 3 3 3 3 3 2 2 2 2 2 3 3 4 5 5 6 5 4 4 4 4 4 5 4 4 4 4 4 4 4 4 5
2 2 1 1 2 2 2 2 2 2 2 2 3 3 3 3 3 3 3 2 2 2 3 4 3 3 2 3 2 2 2 2 2 3 3 3 3 3 3 3 3 3 3 3 3 2 3 3 3 4 4 5 5 5 4 3 3 4 4 5 4 4 3 3 3 3 3 4 4
3 2 2 1 1 1 1 1 1 2 2 2 2 2 2 3 3 3 3 3 3 3 3 4 4 3 3 3 3 3 2 3 3 3 3 3 3 3 3 3 3 3 3 3 3 3 3 3 3 4 4 5 5 5 4 3 3 3 4 4 4 4 4 3 3 3 3 3 4
3 3 3 3 3 2 2 2 2 2 2 2 2 2 3 3 3 3 3 4 3 3 3 4 4 4 4 4 4 3 3 3 3 4 4 3 3 3 3 3 3 3 2 2 2 2 2 3 3 4 4 5 5 5 4 3 3 3 4 4 4 4 4 4 4 4 3 3 4
4 4 4 3 3 3 2 2 2 2 2 2 3 3 3 3 3 3 4 4 4 3 4 4 4 4 4 4 4 4 4 3 3 4 4 3 3 3 4 3 3 3 2 2 2 2 2 3 3 3 4 5 5 5 4 3 3 4 4 4 4 4 4 4 4 3 3 3 4
4 3 3 3 3 3 3 3 3 3 3 3 3 3 3 3 3 4 4 3 3 3 4 4 4 4 5 5 5 4 4 3 4 4 4 3 3 4 4 3 3 3 3 3 3 3 3 3 4 4 4 5 5 5 5 4 4 4 4 4 4 4 4 4 3 3 3 3 4
3 3 3 3 3 3 3 3 3 3 3 3 3 3 3 3 4 3 3 3 3 4 4 4 4 5 5 5 5 5 4 4 5 4 4 4 4 3 3 3 4 4 4 4 4 4 4 4 4 4 4 5 5 5 5 5 4 4 3 3 3 3 4 4 4 4 3 3 3
4 4 3 3 4 4 4 4 3 3 3 3 3 3 3 3 3 3 3 3 3 4 4 4 4 4 5 5 5 5 5 5 5 5 5 5 4 4 3 3 4 4 5 4 5 5 5 4 4 4 4 4 4 4 5 4 4 3 3 2 3 3 3 4 4 4 4 4 3
4 4 4 4 4 4 4 4 4 4 4 4 3 3 3 3 3 3 3 3 4 4 5 5 4 4 4 4 5 5 5 6 6 6 5 5 5 4 4 3 4 4 4 5 7 8 8 7 6 4 3 3 3 4 4 4 3 3 2 2 2 3 3 4 4 5 4 4 3
4 4 4 5 5 5 4 4 4 4 4 4 4 4 4 4 3 3 3 4 4 5 5 5 5 5 4 4 5 5 5 5 5 5 5 5 5 5 4 4 4 4 4 6 9 10 11 11 9 7 5 3 3 3 4 4 4 3 2 2 2 2 3 4 4 4 4 3 3
4 4 4 5 5 5 5 5 4 4 4 4 4 4 4 4 3 4 4 5 5 5 4 4 4 4 5 4 5 5 6 5 5 5 5 6 6 5 5 5 4 4 4 7 10 11 12 12 12 10 8 4 3 4 4 4 4 4 3 2 2 3 3 3 4 4 4 3 3
4 4 5 5 5 5 5 5 5 5 5 4 4 4 4 4 5 5 5 5 5 5 4 4 4 4 3 4 5 6 6 6 5 5 5 6 6 6 6 5 4 5 6 8 10 12 12 12 12 12 10 7 5 4 5 5 5 4 4 3 3 3 3 3 3 3 3 3 3
4 5 5 5 5 5 5 5 5 5 5 5 4 4 5 5 5 5 5 5 5 5 4 4 3 3 3 4 5 5 6 6 6 5 5 6 6 6 6 6 6 6 8 10 11 12 12 12 12 12 12 10 6 4 4 4 4 4 4 3 3 3 3 3 3 3 3 3 3
5 5 5 6 6 6 6 5 5 5 5 5 5 5 5 5 5 6 6 6 5 5 5 4 3 3 4 5 4 5 5 5 5 5 5 6 6 6 6 6 6 6 8 11 12 13 13 12 12 12 12 12 8 5 4 4 4 4 4 4 4 3 3 3 3 3 3 3 3
5 5 6 6 6 6 6 6 6 6 6 5 6 6 6 6 6 5 5 5 5 5 5 5 5 6 6 5 5 5 5 5 5 5 5 6 7 8 7 7 7 7 8 11 13 13 13 13 13 13 13 12 9 6 4 5 5 5 5 4 4 4 4 4 3 3 3 2 2
5 5 6 6 6 6 6 7 7 6 6 6 6 6 6 6 5 5 5 4 5 5 5 5 6 6 6 6 5 5 6 6 6 6 6 7 7 7 7 7 7 7 9 11 13 14 14 14 14 13 13 13 10 7 5 5 6 6 6 6 6 5 5 4 4 3 3 3 2
5 5 6 6 6 7 7 7 7 7 7 7 7 6 6 6 6 5 5 5 4 4 5 5 6 6 6 6 6 6 6 6 7 7 7 7 7 7 7 7 6 7 9 11 13 14 14 14 14 14 14 13 10 7 6 6 6 6 6 6 6 6 6 5 4 4 3 3 3
5 5 6 6 6 7 7 7 6 6 6 7 6 6 6 6 6 6 5 5 4 4 4 4 5 5 5 5 6 6 6 7 6 7 7 7 7 7 7 7 6 7 10 12 13 14 14 14 14 14 14 14 9 7 6 6 6 6 6 7 6 6 5 5 5 4 4 4 3
5 5 6 6 7 7 7 7 7 7 6 6 7 6 6 5 5 6 6 5 5 5 5 5 5 5 5 6 6 6 7 7 7 7 7 7 7 7 7 7 7 8 11 13 14 14 14 14 14 14 14 12 8 6 6 6 7 7 8 8 7 7 6 5 5 5 4 4 4
4 5 6 7 7 7 7 7 7 7 7 7 7 6 6 6 5 5 5 6 5 5 5 5 5 5 5 6 6 6 7 7 8 8 8 7 7 7 7 8 7 9 11 13 14 14 14 14 14 14 13 10 6 5 5 6 6 7 8 9 9 8 7 6 5 5 4 4 4
4 5 6 6 7 7 7 7 7 7 7 7 7 6 6 6 6 5 5 5 5 5 5 5 6 6 6 6 6 7 7 7 8 8 8 8 7 8 8 8 7 8 11 13 14 15 15 14 14 14 12 8 6 5 5 5 5 6 8 9 9 8 7 6 5 5 5 5 4
4 4 5 6 7 7 7 7 7 7 8 8 6 6 6 6 5 5 5 5 4 5 5 5 6 6 6 7 8 8 8 8 8 8 8 9 8 8 8 8 8 8 9 12 13 14 15 15 15 14 11 7 5 5 5 5 5 6 7 7 7 7 7 6 5 5 5 5 6
4 4 5 6 6 7 7 7 7 7 7 7 7 7 6 6 5 5 5 5 4 5 5 5 6 7 7 7 8 8 8 9 9 9 9 9 9 9 9 9 8 8 9 11 13 14 15 15 15 14 12 8 6 5 5 5 5 6 6 7 6 6 6 6 5 5 5 6 8
4 5 5 6 6 7 7 7 8 7 7 7 7 7 7 6 6 5 5 5 5 5 5 6 6 7 8 8 8 8 9 9 9 9 9 9 10 10 10 9 9 9 10 11 13 14 15 15 15 15 13 8 6 5 5 5 5 6 7 6 6 6 5 5 4 4 5 5 7
4 5 5 6 6 7 7 8 8 7 7 7 7 7 6 6 6 5 5 5 5 5 5 6 7 8 8 8 8 8 9 9 9 9 9 10 10 10 10 9 10 10 10 10 12 14 15 15 16 16 14 9 6 5 5 5 6 7 7 7 6 5 5 5 4 4 4 5 5
Wind_Direction
210 216 221 226 235 243 253 264 272 274 274 267 259 252 252 259 276 283 288 293 290 286 279 268 265 282 314 332 330 324 322 323 337 346 350 349 348 349 350 349 346 345 344 345 347 348 348 346 348 353 359 359 358 357 356 354 352 355 0 6 6 4 2 3 2 0 359 360 356
212 217 221 227 235 244 257 268 272 274 271 261 243 230 222 223 249 265 274 275 275 275 274 268 264 286 320 333 325 320 319 323 342 352 354 350 349 351 352 349 346 344 343 344 347 348 348 345 347 353 359 358 358 359 358 355 351 353 359 5 5 3 2 3 1 358 356 357 355
211 216 218 223 230 237 244 252 258 262 263 262 247 227 214 215 232 249 258 261 265 268 270 262 247 258 324 328 318 314 315 325 349 358 358 352 352 353 353 349 345 343 342 343 346 347 346 343 347 355 360 356 358 1 0 354 351 351 356 2 3 2 2 1 357 356 356 357 355
216 218 219 222 227 228 233 238 248 255 261 264 263 250 230 224 230 240 248 256 263 263 257 239 209 180 207 320 309 308 313 331 357 5 3 356 355 354 352 348 344 342 341 341 344 346 345 343 348 356 359 354 358 2 2 354 350 350 353 359 1 2 1 358 356 355 356 356 354
216 217 218 221 227 230 232 233 243 253 262 270 280 277 263 246 241 242 246 252 254 252 245 220 181 159 164 273 292 301 311 333 1 10 8 3 359 356 352 348 345 342 340 339 344 346 346 343 349 357 358 354 0 3 1 354 350 349 350 356 0 2 1 359 356 354 354 355 355
214 217 218 220 228 237 243 245 249 255 263 275 281 280 275 266 259 255 253 252 254 258 261 240 160 163 208 253 277 292 307 330 2 15 16 11 4 358 353 348 345 343 340 339 344 346 346 345 351 356 357 355 359 1 0 355 352 350 351 355 359 1 1 1 356 353 353 354 355
212 217 221 226 231 242 254 262 263 268 272 276 271 267 265 264 262 261 259 260 271 283 293 299 258 219 233 255 276 285 297 324 359 20 24 19 9 2 355 349 347 344 342 340 344 347 348 348 354 356 355 353 355 358 359 357 354 352 351 354 357 359 0 1 356 353 352 353 355
218 221 225 229 237 248 259 268 274 277 277 272 263 259 258 259 259 260 262 269 274 278 277 274 254 244 248 265 271 276 281 317 353 15 25 25 11 5 359 352 348 345 342 339 344 347 349 352 356 356 353 351 352 354 355 355 354 353 352 353 354 356 358 359 356 353 352 352 355
232 233 232 235 243 252 259 266 268 269 269 268 263 260 258 258 257 257 258 259 258 257 260 259 256 259 267 273 271 266 259 229 2 28 27 25 9 5 2 358 351 345 340 336 343 347 349 351 355 354 351 349 348 349 350 353 354 355 354 353 353 354 355 357 355 353 351 352 354
235 231 228 227 234 240 248 258 260 262 264 267 267 266 265 264 261 257 251 244 246 251 256 254 259 267 273 273 268 259 239 194 170 150 100 32 0 0 4 3 353 344 337 331 339 344 346 346 350 350 349 346 345 345 347 351 353 355 355 354 352 352 354 356 355 353 351 351 352
239 230 220 213 219 226 236 250 258 261 262 265 268 269 270 269 267 263 256 245 246 249 251 247 250 257 263 264 262 254 236 198 174 162 158 177 236 309 0 5 351 340 331 322 332 340 343 341 343 345 345 344 343 345 347 349 351 352 353 353 352 352 354 356 356 354 352 349 348
245 239 227 211 208 213 226 246 258 263 264 265 267 268 268 268 267 266 264 258 251 249 248 246 245 250 254 257 257 253 243 213 184 172 171 188 204 210 218 305 335 326 318 311 325 335 340 337 338 340 341 342 342 344 345 346 348 349 350 351 352 353 354 355 355 354 351 348 347
241 237 232 218 207 205 221 245 257 263 266 267 267 267 266 266 267 267 265 260 255 254 255 255 251 249 249 250 252 250 245 230 201 184 181 191 199 203 207 208 253 295 302 305 319 329 335 334 333 333 334 336 337 339 342 344 344 345 346 348 350 352 352 352 353 352 351 349 348
234 227 220 213 204 206 218 239 251 259 263 266 265 264 263 263 264 263 261 257 256 255 257 260 256 250 244 240 241 241 242 239 223 204 196 198 201 201 201 200 206 244 280 295 310 320 326 327 326 326 326 327 327 331 336 340 340 340 341 343 346 347 348 348 349 350 350 350 348
234 221 210 202 200 204 215 231 244 252 257 262 261 260 258 257 256 253 251 249 251 252 254 256 256 251 245 237 234 234 236 238 234 228 223 219 214 206 199 195 196 210 241 275 293 304 311 315 317 317 316 316 317 321 327 333 333 332 332 335 338 340 341 342 345 347 348 347 346
247 226 208 196 198 205 215 226 235 244 251 257 261 261 261 261 258 252 245 245 249 253 256 256 256 256 255 249 241 236 235 236 234 233 232 232 225 214 202 192 193 200 215 241 265 279 289 295 302 305 306 305 305 308 313 320 323 323 323 324 327 330 332 334 338 340 341 341 341
268 242 214 194 198 206 217 225 232 240 248 259 270 278 283 286 289 284 272 257 260 265 268 267 265 269 275 275 268 258 247 244 238 233 230 230 223 214 203 193 191 194 201 215 235 254 267 276 282 287 291 291 291 293 296 302 310 313 314 314 315 317 320 325 326 328 329 331 333
291 276 246 197 200 210 221 231 237 245 254 264 276 285 292 298 303 303 300 292 285 282 281 281 282 284 285 285 282 277 267 258 251 242 233 225 217 208 200 194 191 191 195 203 215 230 246 258 267 273 277 279 280 280 281 285 294 299 302 304 303 303 305 309 307 309 313 317 320
317 329 345 3 344 299 276 272 267 264 263 264 268 274 279 283 288 293 297 297 292 287 285 286 289 290 287 284 282 278 271 259 256 252 244 232 220 209 202 197 193 191 193 199 210 223 235 247 256 265 271 276 277 277 276 276 281 286 289 291 290 290 290 289 285 285 290 300 305
350 1 8 8 3 355 341 322 304 289 279 274 270 268 266 266 269 273 276 278 278 279 280 282 284 286 285 283 282 279 273 264 259 255 251 240 229 220 212 204 199 195 194 198 212 227 240 250 257 265 272 278 281 281 281 280 281 281 282 283 281 280 278 275 269 266 269 281 288
6 9 6 1 353 342 328 312 301 293 286 282 275 269 264 261 260 258 258 260 265 269 273 275 276 276 277 278 278 277 274 271 265 260 254 245 234 224 215 205 200 196 197 199 216 234 248 258 265 270 274 279 281 282 283 283 282 282 281 281 281 281 279 275 265 258 255 261 267
4 0 353 345 335 323 311 300 293 287 282 278 273 267 263 260 256 253 251 251 256 261 264 266 266 267 268 269 270 271 273 274 271 267 262 253 240 228 215 200 197 198 201 204 214 226 239 250 257 262 266 271 273 275 275 274 273 274 277 281 287 291 293 292 281 268 257 250 249
355 348 341 333 326 319 312 303 296 289 283 278 273 269 265 261 257 253 252 252 253 254 255 257 257 258 260 261 263 266 270 273 273 272 269 264 254 240 222 202 199 202 207 207 208 213 223 235 243 248 252 257 262 264 265 263 262 262 268 277 288 297 302 303 297 287 273 258 247
346 341 337 333 329 323 316 310 305 298 291 284 279 275 273 271 268 265 262 259 256 253 252 252 252 254 256 259 261 263 265 268 270 271 272 270 265 254 238 215 207 207 208 207 207 210 215 220 228 236 244 251 257 260 261 258 253 251 253 267 284 295 301 302 299 295 287 276 263
342 340 338 335 330 325 320 316 312 306 299 292 289 287 285 283 280 277 274 269 262 257 254 252 251 252 254 258 260 260 260 261 262 265 268 270 269 265 255 236 221 214 210 210 219 224 227 225 222 224 232 249 265 273 276 272 260 250 244 252 274 287 294 297 296 294 291 285 277
341 340 337 333 329 326 322 319 315 311 307 305 304 302 296 290 285 283 279 276 270 264 258 253 252 251 251 253 256 258 258 257 257 258 261 264 267 267 263 253 239 225 216 215 226 233 237 237 232 228 225 234 257 274 281 282 276 267 255 250 261 273 281 286 289 290 291 291 290
340 338 333 329 328 325 322 319 319 319 318 317 316 312 305 300 297 292 287 281 276 271 265 258 254 251 250 248 251 252 253 254 254 255 255 257 260 262 263 260 251 239 226 223 231 237 241 242 239 235 229 221 233 250 263 271 273 271 264 254 253 256 263 269 276 283 290 297 300
335 332 330 329 326 323 320 320 322 322 321 320 317 314 310 308 304 299 293 288 285 281 276 269 259 254 251 249 248 248 248 250 251 252 253 254 255 257 257 258 256 248 241 237 239 241 242 243 242 240 236 228 228 235 246 256 262 262 257 247 242 244 248 257 267 279 289 297 301
331 330 329 327 322 319 318 319 319 317 315 314 312 310 308 306 303 299 296 294 292 289 284 276 268 261 255 251 248 247 247 247 246 247 249 252 254 254 254 254 254 253 252 251 249 247 245 243 242 241 240 237 232 230 236 246 252 253 250 240 233 233 238 249 262 274 283 290 296
330 329 326 322 318 316 315 314 312 311 310 308 307 306 305 303 300 298 296 295 293 289 285 282 280 271 262 254 252 250 249 248 245 243 244 247 250 252 252 251 250 251 254 256 257 255 251 245 242 241 242 242 238 234 234 242 246 247 245 240 231 228 230 239 251 261 271 279 291
328 326 324 319 316 313 312 310 310 309 309 308 306 304 301 299 296 294 292 290 288 287 287 287 284 278 272 265 260 256 254 253 250 245 243 243 247 249 250 249 247 249 252 255 258 258 256 251 245 242 241 242 240 237 235 241 244 245 242 237 229 225 224 228 235 244 253 266 281
325 323 320 317 313 311 309 309 309 309 309 308 305 302 299 295 292 290 288 285 285 286 286 286 283 280 278 275 270 265 261 258 256 251 246 242 244 247 249 249 246 246 249 253 256 258 258 256 250 246 242 241 240 237 234 239 244 246 244 238 229 223 219 218 222 229 236 245 256
321 320 317 313 310 308 307 308 308 309 308 307 304 302 299 297 295 293 291 289 286 284 283 281 279 278 277 276 275 272 268 263 259 256 252 247 245 246 248 250 248 247 248 252 255 257 257 257 254 251 247 243 241 236 232 237 244 248 249 245 235 226 217 213 214 217 222 229 231
318 316 313 309 307 306 305 306 306 307 306 305 303 301 300 299 300 300 298 296 292 289 286 283 280 278 276 276 276 276 274 272 268 264 259 254 251 249 250 251 249 247 248 251 254 255 256 256 255 253 250 247 244 237 231 234 241 246 250 252 246 236 225 215 211 210 213 217 220
314 313 310 307 305 304 304 304 304 304 304 302 301 300 300 300 301 301 301 301 301 299 297 295 291 288 286 283 281 279 278 278 275 271 266 261 257 255 254 253 251 248 247 250 252 253 254 254 254 253 252 249 245 238 232 233 238 242 246 249 248 243 234 222 215 211 209 209 213
309 308 306 304 303 303 303 303 303 303 302 301 300 300 301 301 301 301 302 304 304 304 303 301 301 299 297 294 290 285 281 278 275 272 268 262 259 257 256 256 254 250 248 248 250 251 251 251 251 251 250 248 243 237 233 233 237 240 242 244 244 242 236 228 220 213 208 206 210
299 300 300 300 300 301 301 302 303 303 302 301 300 300 301 301 300 300 301 303 303 302 301 301 301 300 298 297 293 289 284 279 276 273 270 265 260 258 258 259 257 252 249 248 249 249 249 249 248 247 246 243 238 234 234 235 237 239 240 241 241 239 235 230 222 214 208 205 209
288 291 293 295 296 297 299 301 301 301 300 299 299 299 299 299 298 297 298 299 298 297 297 297 297 295 294 293 292 289 286 282 278 275 272 269 263 259 258 260 259 254 249 247 247 248 248 247 246 244 241 236 231 230 233 236 238 239 239 239 238 236 233 230 221 213 208 206 212
278 281 285 287 289 292 294 296 296 296 296 296 296 297 297 296 294 293 292 292 290 290 291 292 291 290 290 292 291 290 287 284 279 276 273 270 265 262 259 259 259 256 251 247 247 247 247 246 244 241 238 233 226 225 230 236 239 239 239 237 236 234 232 227 218 211 208 209 216
271 274 275 277 280 283 286 287 287 287 288 291 292 293 293 293 291 290 290 290 288 287 287 287 287 288 289 291 291 290 289 286 282 277 273 270 267 264 261 259 259 257 253 249 247 247 247 245 243 240 237 232 222 221 227 234 239 241 240 236 232 231 230 226 216 209 208 212 219
267 268 269 269 271 273 276 278 279 280 281 283 284 285 287 288 288 289 291 291 290 289 289 289 288 287 288 290 289 289 289 288 284 280 275 272 269 266 263 260 259 257 254 249 247 247 246 245 244 240 237 231 220 217 223 231 239 242 241 237 229 224 223 223 217 211 209 211 217